Погода в Нижней Якушке

Россия / Ульяновская область     54°12′47″N   49°47′41″E
темп.,
°C
ветер,
м/с
пор.,
м/с
влажн.,
%
обл.,
%
осадки,
мм/ч
давл.,
гПа
погр.,
м
21 апреля, ср
ср2101:00+5юв61543100 0.0 1027758
04:00+4юв71647100 0.0 1026705
07:00+4юв71648100 0.0 1025844
10:00+4юв71653100 0.3 1025837
13:00+5юв71553100 0.0 1024911
16:00+3ююв81780100 1.8 1024838
19:00+2ююв71693100 2.4 1024821
22:00+3ююв61492100 3.1 1023818
22 апреля, чт
чт2201:00+3ююв61394100 1.8 1023677
04:00+4ююв51194100 2.6 1024610
07:00+5ююв41194100 0.1 1024578
10:00+5ю41088100 0.4 1025645
13:00+10ю5772100 0.4 1025988
16:00+10ююв477399 0.4 1025911
19:00+8ююв51085100 0.0 1026439
22:00+6ююв41089100 0.0 1026410
23 апреля, пт
пт2301:00+5ююв4888100 0.0 1026339
04:00+5ююв3690100 0.0 1026260
07:00+5ююв3693100 0.0 1027269
10:00+7ю348395 0.0 1027373
13:00+12вюв22635 0.0 1026779
16:00+13вюв3358100 0.0 10251362
19:00+11в3670100 0.0 1024233
22:00+7всв2586100 0.0 102396
24 апреля, сб
сб2401:00+7св3886100 0.0 1021235
04:00+6всв3692100 0.0 1019195
07:00+7всв2592100 0.0 1018277
10:00+7св3692100 0.1 1016443
13:00+7св3490100 0.3 1015360
16:00+8св1288100 0.3 1014313
19:00+7ссв0091100 0.0 101419
22:00+6ююз119426 0.0 101316
25 апреля, вс
вс2501:00+4ююв22965 0.0 101240
04:00+6юв3892100 0.0 1010257
07:00+4з81490100 0.8 1011836
10:00+7з6117334 0.9 10121251
13:00+11зюз7114971 0.4 10142250
16:00+13зюз6114386 0.4 10152579
19:00+9юз486013 0.3 1016388
22:00+6юз377418 0.3 1017150